Weather reports worldwide

Advertisment
Hoherodskopf/Vogelsberg, Germany (10534): temperature & dewpoint: 19.03.2019 18:00:00 - 25.03.2019 18:00:00 (CET)Hoherodskopf/Vogelsberg, Germany (10534): temperature 5cm & temperature -5cm: 19.03.2019 18:00:00 - 25.03.2019 18:00:00 (CET)Hoherodskopf/Vogelsberg, Germany (10534): temperature -20cm & temperature -100cm: 19.03.2019 18:00:00 - 25.03.2019 18:00:00 (CET)Hoherodskopf/Vogelsberg, Germany (10534): wind speed & gusts: 19.03.2019 18:00:00 - 25.03.2019 18:00:00 (CET)Hoherodskopf/Vogelsberg, Germany (10534): wind direction: 19.03.2019 18:00:00 - 25.03.2019 18:00:00 (CET)Hoherodskopf/Vogelsberg, Germany (10534): reduced air pressure: 19.03.2019 18:00:00 - 25.03.2019 18:00:00 (CET)Hoherodskopf/Vogelsberg, Germany (10534): visibility: 19.03.2019 18:00:00 - 25.03.2019 18:00:00 (CET)Hoherodskopf/Vogelsberg, Germany (10534): sunshine duration: 19.03.2019 18:00:00 - 25.03.2019 18:00:00 (CET)Hoherodskopf/Vogelsberg, Germany (10534): precipitation: 19.03.2019 18:00:00 - 25.03.2019 18:00:00 (CET)
Date & Time tt [°C] td [°C] tt 5cm [°C] tt -5cm [°C] tt -20cm [°C] tt -100cm [°C] ff [km/h] ff [kn] fx [km/h] fx [kn] dd ppp [hPa] vv [km] sd [min] rr [mm]
25.03.2019 18:00:00 - - - - - - - - - - - - - - -
25.03.2019 17:00:00 1,5 -1,5 1,7 3,6 4,8 4,8 31 17 59 32 NW 1021,1 47 36 0,0
25.03.2019 16:00:00 2,0 -0,1 4,1 2,5 4,9 4,8 40 21 55 30 NW 1020,0 56 22 0,1
25.03.2019 15:00:00 1,2 -1,0 2,1 2,2 4,9 4,8 34 18 58 32 WNW 1020,1 63 3 0,0
25.03.2019 14:00:00 -0,5 -0,9 -0,1 3,3 5,0 4,8 35 19 59 32 WNW 1020,2 0,3 7 0,5
25.03.2019 13:00:00 2,2 0,7 5,2 2,7 5,1 4,8 28 15 52 28 W 1019,3 51 12 0,1
25.03.2019 12:00:00 1,4 -1,0 2,5 1,3 5,1 4,8 29 16 61 33 W 1019,5 42 15 0,1
25.03.2019 11:00:00 1,3 -0,9 4,7 0,8 5,2 4,8 25 13 51 28 WNW 1019,5 32 14 0,0
25.03.2019 10:00:00 -0,4 -0,7 -0,1 0,9 5,3 4,8 17 9 30 16 W 1020,3 0,1 0 0,0
25.03.2019 09:00:00 -0,8 -1,2 -0,3 0,9 5,4 4,8 18 10 30 16 W 1020,4 0,1 0 0,4
25.03.2019 08:00:00 -1,0 -1,6 -0,8 0,9 5,5 4,8 21 12 33 18 W 1019,8 4,5 0 0,0
25.03.2019 07:00:00 -1,2 -2,0 -1,0 0,9 5,5 4,8 20 11 34 18 W 1020,2 6 0 0,0
25.03.2019 06:00:00 -1,1 -2,5 -1,2 0,9 5,6 4,8 22 12 32 17 WSW 1020,3 14 0 0,0
25.03.2019 05:00:00 -0,9 -2,8 -1,0 1,0 5,7 4,8 19 10 32 17 W 1021,0 21 0 0,0
25.03.2019 04:00:00 -0,8 -3,4 -1,1 1,1 5,8 4,8 19 11 30 16 WNW 1021,6 27 0 0,0
25.03.2019 03:00:00 -0,5 -3,5 -1,9 1,3 5,8 4,7 21 11 29 16 WNW 1022,0 30 0 0,0
25.03.2019 02:00:00 0,1 -3,5 -1,5 1,6 5,9 4,7 22 12 29 16 WNW 1022,4 36 0 0,0
25.03.2019 01:00:00 1,0 -4,0 -0,9 1,9 5,9 4,7 22 12 34 18 WNW 1022,7 40 0 0,0
25.03.2019 00:00:00 1,5 -3,4 -0,6 2,3 6,0 4,7 22 12 28 15 NW 1023,2 39 0 0,0
24.03.2019 23:00:00 2,1 -2,3 -0,3 2,9 6,0 4,7 21 11 26 14 NW 1023,6 36 0 0,0
24.03.2019 22:00:00 3,1 -0,7 1,0 4,1 6,0 4,7 18 10 23 12 NNW 1023,6 33 0 0,0
24.03.2019 21:00:00 4,0 1,6 2,4 5,0 6,0 4,7 14 8 21 11 NW 1023,6 16 0 0,0
24.03.2019 20:00:00 4,7 2,6 3,5 4,9 6,0 4,7 8 4 11 6 W 1023,6 14 0 0,0
24.03.2019 19:00:00 4,7 2,4 1,7 6,4 5,9 4,7 8 4 15 8 W 1023,5 14 34 0,0
24.03.2019 18:00:00 5,5 2,6 5,3 7,4 5,9 4,7 10 5 16 9 WNW 1023,2 17 24 0,0
24.03.2019 17:00:00 5,3 2,8 5,2 7,6 5,8 4,7 14 7 23 12 NW 1023,9 12 0 0,0
24.03.2019 16:00:00 6,3 1,9 7,4 8,8 5,8 4,7 12 6 21 12 NNW 1023,6 21 0 0,0
24.03.2019 15:00:00 6,3 1,8 8,1 9,8 5,7 4,7 16 9 28 15 NW 1023,7 14 8 0,0
24.03.2019 14:00:00 6,5 2,7 8,6 9,1 5,7 4,7 20 11 29 16 NNW 1024,2 12 0 0,0
24.03.2019 13:00:00 7,1 2,7 9,2 10,3 5,7 4,7 10 6 21 11 NW 1024,3 12 4 0,0
24.03.2019 12:00:00 6,7 2,1 11,8 9,6 5,8 4,7 8 4 13 7 NE 1024,7 11 16 0,0
24.03.2019 11:00:00 5,1 3,7 7,2 7,7 5,8 4,6 4 2 14 8 NNE 1025,8 4,4 0 0,0
24.03.2019 10:00:00 4,5 3,9 6,5 6,6 5,8 4,6 8 4 23 13 ENE 1026,1 2,7 0 0,0
24.03.2019 09:00:00 4,2 4,0 5,0 5,3 5,9 4,6 14 7 26 14 NE 1026,7 0,2 0 0,0
24.03.2019 08:00:00 3,6 3,4 4,0 4,6 6,0 4,6 17 9 34 18 NE 1026,8 0,1 0 0,0
24.03.2019 07:00:00 3,5 3,4 3,6 4,2 6,0 4,6 18 10 33 18 NE 1026,8 0,1 0 0,0
24.03.2019 06:00:00 3,4 3,2 3,4 4,0 6,1 4,6 21 11 32 17 NE 1027,0 0,2 0 0,0
24.03.2019 05:00:00 3,5 3,0 3,4 3,7 6,1 4,6 21 12 31 17 NE 1027,2 0,6 0 0,0
24.03.2019 04:00:00 3,6 2,6 2,6 3,5 6,2 4,6 21 11 34 19 NE 1027,3 4,8 0 0,0
24.03.2019 03:00:00 3,8 2,6 2,6 3,7 6,2 4,6 20 11 34 19 NE 1027,8 6 0 0,0
24.03.2019 02:00:00 3,7 2,6 2,7 4,0 6,3 4,6 21 11 40 22 ENE 1028,0 5 0 0,0
24.03.2019 01:00:00 3,9 2,9 2,9 4,3 6,3 4,6 24 13 41 22 NE 1028,4 4,3 0 0,0
24.03.2019 00:00:00 4,2 3,0 3,2 4,5 6,3 4,6 23 12 43 23 NE 1029,0 5 0 0,0
23.03.2019 23:00:00 4,1 3,1 3,2 4,8 6,3 4,6 26 14 45 24 NE 1029,4 4,5 0 0,0
23.03.2019 22:00:00 4,2 2,6 3,3 5,2 6,3 4,6 26 14 42 23 NE 1029,6 7 0 0,0
23.03.2019 21:00:00 4,5 2,5 3,4 5,7 6,2 4,6 27 15 44 24 NE 1029,7 9 0 0,0
23.03.2019 20:00:00 4,2 2,5 3,4 6,5 6,1 4,6 23 12 46 25 NNE 1029,6 6 0 0,0
23.03.2019 19:00:00 4,8 2,0 3,9 8,2 5,9 4,6 23 13 45 25 N 1029,0 9 17 0,0
23.03.2019 18:00:00 6,2 0,7 6,3 11,2 5,8 4,6 23 13 37 20 N 1028,5 13 60 0,0
23.03.2019 17:00:00 11,5 3,5 13,7 13,8 5,7 4,6 11 6 23 12 N 1026,4 12 60 0,0
23.03.2019 16:00:00 12,9 3,7 16,3 14,7 5,5 4,6 13 7 27 15 NNW 1026,2 14 60 0,0
23.03.2019 15:00:00 13,0 2,1 18,1 15,1 5,4 4,5 10 6 26 14 NNW 1026,2 19 60 0,0
23.03.2019 14:00:00 12,4 3,0 17,3 14,4 5,4 4,5 11 6 20 11 N 1026,6 15 60 0,0
23.03.2019 13:00:00 13,2 3,3 18,1 13,0 5,4 4,5 9 5 29 16 N 1026,3 21 60 0,0
23.03.2019 12:00:00 12,3 2,8 16,6 11,7 5,4 4,5 13 7 19 11 WNW 1026,6 37 60 0,0
23.03.2019 11:00:00 10,3 2,8 15,3 9,1 5,4 4,5 9 5 16 8 NW 1027,4 39 60 0,0
23.03.2019 10:00:00 9,4 2,5 13,8 6,3 5,5 4,5 8 5 13 7 W 1027,2 36 60 0,0
23.03.2019 09:00:00 10,4 -0,1 14,7 4,1 5,6 4,5 5 3 11 6 NNW 1026,7 32 60 0,0
23.03.2019 08:00:00 6,9 0,4 8,0 3,0 5,6 4,5 11 6 17 9 NW 1027,6 36 57 0,0
23.03.2019 07:00:00 7,9 0,8 2,7 2,8 5,7 4,5 8 4 12 6 W 1027,1 29 0 0,0
23.03.2019 06:00:00 8,8 0,9 3,1 3,0 5,7 4,5 9 5 13 7 W 1026,6 34 0 0,0
23.03.2019 05:00:00 9,2 0,8 3,3 3,2 5,8 4,5 10 6 12 6 WNW 1026,4 37 0 0,0
23.03.2019 04:00:00 10,1 0,7 2,7 3,4 5,8 4,5 7 4 10 6 WSW 1026,4 34 0 0,0
23.03.2019 03:00:00 10,4 0,5 5,5 3,9 5,9 4,5 9 5 13 7 SSW 1026,5 38 0 0,0
23.03.2019 02:00:00 10,4 1,0 6,2 4,4 5,9 4,5 10 6 17 9 S 1027,0 42 0 0,0
23.03.2019 01:00:00 10,6 1,0 6,5 4,9 5,9 4,5 13 7 19 10 S 1027,3 42 0 0,0
23.03.2019 00:00:00 10,9 0,9 7,5 5,3 5,8 4,5 15 8 22 12 S 1027,4 48 0 0,0
22.03.2019 23:00:00 10,8 0,5 7,2 5,8 5,8 4,5 16 8 22 12 S 1027,7 45 0 0,0
22.03.2019 22:00:00 11,1 0,7 7,7 6,2 5,7 4,5 17 9 25 14 SSE 1027,8 49 0 0,0
22.03.2019 21:00:00 10,7 0,8 6,7 7,0 5,6 4,5 14 8 21 11 SE 1028,0 51 0 0,0
22.03.2019 20:00:00 10,7 0,7 7,1 8,4 5,4 4,5 13 7 22 12 SE 1028,1 62 0 0,0
22.03.2019 19:00:00 12,1 0,9 7,3 11,0 5,3 4,5 9 5 17 9 SE 1027,8 61 41 0,0
22.03.2019 18:00:00 13,6 1,4 13,1 13,8 5,1 4,5 11 6 22 12 SE 1027,2 73 60 0,0
22.03.2019 17:00:00 14,8 2,5 16,1 15,2 4,9 4,5 14 7 25 14 SE 1027,0 54 60 0,0
22.03.2019 16:00:00 15,0 2,4 17,5 16,0 4,8 4,5 17 9 26 14 SSE 1027,3 61 60 0,0
22.03.2019 15:00:00 14,7 2,5 18,0 16,0 4,6 4,5 16 9 27 15 SE 1028,1 53 60 0,0
22.03.2019 14:00:00 14,3 3,2 18,2 15,4 4,6 4,5 16 9 31 17 SE 1028,7 49 60 0,0
22.03.2019 13:00:00 13,9 3,2 18,3 13,7 4,5 4,5 13 7 23 13 SE 1029,5 52 60 0,0
22.03.2019 12:00:00 12,5 1,6 16,0 11,1 4,5 4,5 16 9 26 14 SE 1030,4 57 60 0,0
22.03.2019 11:00:00 11,4 1,1 14,1 8,4 4,6 4,5 16 8 27 15 SE 1031,1 52 60 0,0
22.03.2019 10:00:00 10,3 0,0 11,7 6,2 4,6 4,5 16 8 25 14 ESE 1031,6 44 60 0,0
22.03.2019 09:00:00 10,1 0,8 10,6 4,5 4,7 4,5 15 8 26 14 ESE 1031,3 50 60 0,0
22.03.2019 08:00:00 8,7 0,9 8,2 2,9 4,7 4,4 18 10 27 15 E 1031,6 31 50 0,0
22.03.2019 07:00:00 7,0 0,4 3,7 2,4 4,7 4,4 15 8 24 13 E 1031,9 45 0 0,0
22.03.2019 06:00:00 7,3 0,8 3,2 2,6 4,8 4,4 14 8 24 13 E 1031,5 32 0 0,0
22.03.2019 05:00:00 7,5 1,0 4,4 2,9 4,8 4,4 16 8 28 15 E 1031,6 37 0 0,0
22.03.2019 04:00:00 7,2 1,8 4,2 2,9 4,8 4,4 15 8 26 14 E 1031,9 35 0 0,0
22.03.2019 03:00:00 7,5 1,9 3,7 3,2 4,8 4,4 12 6 22 12 E 1032,1 32 0 0,0
22.03.2019 02:00:00 8,2 2,0 4,9 3,5 4,8 4,4 13 7 23 12 E 1032,1 35 0 0,0
22.03.2019 01:00:00 7,8 2,0 4,1 3,9 4,8 4,4 14 7 24 13 E 1032,7 31 0 0,0
22.03.2019 00:00:00 8,4 1,8 5,8 4,3 4,8 4,4 14 8 29 16 ENE 1032,7 50 0 0,0
21.03.2019 23:00:00 8,7 1,6 6,2 4,8 4,7 4,4 16 8 28 15 ENE 1032,7 50 0 0,0
21.03.2019 22:00:00 8,7 1,2 5,7 5,3 4,6 4,4 15 8 27 14 ENE 1032,8 40 0 0,0
21.03.2019 21:00:00 9,4 0,5 7,0 6,0 4,4 4,4 15 8 28 15 ENE 1032,5 42 0 0,0
21.03.2019 20:00:00 9,4 0,3 6,4 7,3 4,3 4,4 10 5 19 10 NE 1032,6 60 0 0,0
21.03.2019 19:00:00 9,7 -0,6 6,6 9,9 4,1 4,4 9 5 15 8 NE 1032,3 53 42 0,0
21.03.2019 18:00:00 11,2 0,0 11,2 12,7 3,9 4,4 7 4 16 9 ENE 1031,6 52 60 0,0
21.03.2019 17:00:00 12,0 -1,6 13,7 14,3 3,7 4,4 9 5 18 10 ENE 1031,6 47 60 0,0
21.03.2019 16:00:00 12,7 -1,8 15,5 14,6 3,5 4,4 5 3 13 7 E 1031,6 58 59 0,0
21.03.2019 15:00:00 12,8 0,2 16,4 14,7 3,4 4,4 4 2 12 7 WNW 1032,0 40 60 0,0
21.03.2019 14:00:00 11,3 -0,9 16,2 13,6 3,4 4,4 8 4 16 9 WSW 1032,9 44 60 0,0
21.03.2019 13:00:00 10,7 -1,1 16,2 11,5 3,4 4,4 6 4 16 9 W 1033,6 52 60 0,0
21.03.2019 12:00:00 9,8 -0,7 13,9 8,4 3,4 4,4 8 5 15 8 WSW 1034,4 51 60 0,0
21.03.2019 11:00:00 8,8 -2,7 13,1 3,2 3,4 4,4 6 4 14 8 W 1034,7 75 60 0,0
21.03.2019 10:00:00 7,4 -3,5 11,4 0,9 3,5 4,4 6 3 11 6 W 1035,3 63 60 0,0
21.03.2019 09:00:00 6,6 -3,9 8,3 0,8 3,5 4,4 6 3 10 5 SSW 1035,4 54 60 0,0
21.03.2019 08:00:00 6,1 -3,2 5,7 0,8 3,6 4,4 4 2 8 4 SE 1035,4 48 59 0,0
21.03.2019 07:00:00 4,7 -3,8 0,8 0,9 3,6 4,4 6 4 10 5 SSE 1035,4 43 0 0,0
21.03.2019 06:00:00 4,7 -3,6 1,0 0,9 3,6 4,4 7 4 9 5 SE 1035,3 47 0 0,0
21.03.2019 05:00:00 4,7 -3,9 0,2 1,0 3,7 4,4 5 3 8 5 ESE 1035,2 51 0 0,0
21.03.2019 04:00:00 5,0 -2,4 -0,4 1,1 3,7 4,4 6 4 9 5 ENE 1035,2 66 0 0,0
21.03.2019 03:00:00 4,9 -4,0 -0,2 1,1 3,7 4,4 0 0 5 3 N 1035,3 55 0 0,0
21.03.2019 02:00:00 4,8 -4,0 -0,2 1,3 3,8 4,4 5 3 8 4 S 1035,7 55 0 0,0
21.03.2019 01:00:00 5,2 -3,6 -0,1 1,4 3,8 4,4 4 2 7 4 S 1035,5 56 0 0,0
21.03.2019 00:00:00 5,8 -2,3 0,1 1,6 3,7 4,4 3 2 4 2 SW 1035,5 44 0 0,0
20.03.2019 23:00:00 5,3 -2,3 0,4 1,8 3,7 4,4 2 1 3 2 SW 1035,7 53 0 0,0
20.03.2019 22:00:00 5,2 -2,1 -0,3 2,0 3,6 4,4 2 1 5 3 WSW 1035,5 49 0 0,0
20.03.2019 21:00:00 4,7 -4,2 -0,5 2,8 3,5 4,4 3 1 5 3 S 1035,5 55 0 0,0
20.03.2019 20:00:00 5,4 -4,3 0,0 4,3 3,4 4,4 4 2 6 4 SSW 1035,1 51 0 0,0
20.03.2019 19:00:00 5,5 -4,1 1,2 6,7 3,2 4,4 4 2 8 4 WSW 1034,7 51 37 0,0
20.03.2019 18:00:00 6,8 -3,3 6,9 9,1 3,1 4,4 5 3 14 8 WNW 1033,8 55 60 0,0
20.03.2019 17:00:00 7,1 -3,6 9,5 10,9 3,0 4,5 11 6 19 11 W 1034,0 72 60 0,0
20.03.2019 16:00:00 7,2 -2,4 11,2 11,6 2,9 4,5 11 6 20 11 WNW 1034,2 39 59 0,0
20.03.2019 15:00:00 6,8 -4,1 11,3 10,9 2,9 4,5 9 5 19 10 WSW 1034,1 49 60 0,0
20.03.2019 14:00:00 6,1 -3,1 10,8 9,2 2,9 4,5 10 6 23 12 W 1034,5 65 60 0,0
20.03.2019 13:00:00 6,3 -0,6 11,0 5,1 2,9 4,5 10 6 19 10 W 1034,6 40 60 0,0
20.03.2019 12:00:00 4,7 -2,1 9,0 1,0 2,9 4,5 11 6 20 11 W 1035,3 44 60 0,0
20.03.2019 11:00:00 4,2 -2,3 8,4 0,4 2,9 4,5 9 5 16 9 W 1035,3 42 60 0,0
20.03.2019 10:00:00 3,4 -3,6 6,4 0,3 3,0 4,5 10 6 16 8 WSW 1035,3 39 60 0,0
20.03.2019 09:00:00 2,9 -4,0 5,4 0,3 3,0 4,5 6 4 10 5 WSW 1034,7 50 60 0,0
20.03.2019 08:00:00 2,1 -4,6 2,7 0,4 3,0 4,5 5 3 8 5 SW 1034,7 43 58 0,0
20.03.2019 07:00:00 1,7 -4,9 -3,3 0,4 3,1 4,5 6 3 9 5 WSW 1034,0 46 0 0,0
20.03.2019 06:00:00 1,6 -4,8 -3,6 0,5 3,1 4,5 5 3 6 3 WSW 1033,6 42 0 0,0
20.03.2019 05:00:00 1,3 -4,5 -3,7 0,5 3,1 4,5 4 2 8 4 SW 1033,6 50 0 0,0
20.03.2019 04:00:00 1,4 -4,2 -3,0 0,6 3,1 4,5 5 3 9 5 W 1033,5 43 0 0,0
20.03.2019 03:00:00 0,9 -4,4 -3,3 0,7 3,2 4,5 5 3 9 5 S 1033,3 43 0 0,0
20.03.2019 02:00:00 1,2 -4,7 -3,3 0,8 3,2 4,5 4 2 9 5 NE 1033,3 49 0 0,0
20.03.2019 01:00:00 1,9 -4,8 -1,8 0,9 3,2 4,5 5 3 8 4 N 1033,2 48 0 0,0
20.03.2019 00:00:00 1,3 -4,6 -2,7 1,0 3,2 4,5 6 3 11 6 NE 1033,1 50 0 0,0
19.03.2019 23:00:00 1,4 -4,5 -2,3 1,1 3,1 4,5 8 4 14 8 NNE 1032,7 50 0 0,0
19.03.2019 22:00:00 1,7 -4,8 -1,5 1,3 3,1 4,5 11 6 16 9 NW 1032,1 52 0 0,0
19.03.2019 21:00:00 1,8 -4,8 -1,3 1,6 3,0 4,5 6 3 9 5 NW 1031,6 56 0 0,0
19.03.2019 20:00:00 1,8 -4,8 -2,2 2,3 2,9 4,5 8 4 10 5 WNW 1031,3 55 0 0,0
19.03.2019 19:00:00 2,2 -4,5 -2,0 4,3 2,8 4,5 5 3 18 10 WNW 1030,6 49 20 0,0
19.03.2019 18:00:00 3,0 -4,8 3,7 7,3 2,7 4,5 14 7 22 12 NW 1029,5 51 60 0,0

tt = temperature
td = dewpoint
tt 5cm = temperature 5cm
tt -5cm = temperature -5cm
tt -20cm = temperature -20cm
tt -100cm = temperature -100cm
ff = wind speed
fx = gusts
dd = wind direction
ppp = reduced air pressure
vv = visibility
sd = sunshine duration
rr = precipitation

Next stations